Terminal Aerodrome Forecast
Issued by NWS

Home | Current Version | Previous Version | Text Only | Print | Product List | Glossary On
Versions: 1 2 3 4 5 6 7 8 9 10 11 12 13 14
000
FTAK31 PAJN 201700
TAFAGY
TAF
PAGY 201726Z 2018/2118 VRB04KT P6SM BKN090
     FM202000 21010KT P6SM VCSH BKN100
     FM210400 21006KT P6SM SCT090
     FM210600 03004KT P6SM SKC
      AMD LTD TO CLD VIS AND WIND=

USA.gov is the U.S. government's official web portal to all federal, state and local government web resources and services.